Time,TemperatureF,DewpointF,PressureIn,WindDirection,WindDirectionDegrees,WindSpeedMPH,WindSpeedGustMPH,Humidity,HourlyPrecipIn,Conditions,Clouds,dailyrainin,SoftwareType,DateUTC
2013-08-30 00:04:00,55.6,47.8,31.26,NE,45,3.0,5.0,75,0.00,,,0.04,meteohub,2013-08-30 06:04:00,
2013-08-30 00:09:00,56.1,48.0,31.26,East,90,3.0,5.0,74,0.00,,,0.00,meteohub,2013-08-30 06:09:00,
2013-08-30 00:14:00,55.8,48.0,31.26,East,90,4.0,5.0,75,0.00,,,0.00,meteohub,2013-08-30 06:14:00,
2013-08-30 00:19:00,55.6,47.8,31.26,East,90,4.0,5.0,75,0.00,,,0.00,meteohub,2013-08-30 06:19:00,
2013-08-30 00:24:00,55.4,47.7,31.26,NE,45,4.0,8.0,75,0.00,,,0.00,meteohub,2013-08-30 06:24:00,
2013-08-30 00:29:00,55.2,47.8,31.26,NE,45,5.0,8.0,76,0.00,,,0.00,meteohub,2013-08-30 06:29:00,
2013-08-30 00:34:00,55.6,47.8,31.26,NE,45,5.0,6.0,75,0.00,,,0.00,meteohub,2013-08-30 06:34:00,
2013-08-30 00:39:00,55.9,47.8,31.26,NE,45,6.0,7.0,74,0.00,,,0.00,meteohub,2013-08-30 06:39:00,
2013-08-30 00:44:00,55.9,47.8,31.26,East,90,5.0,8.0,74,0.00,,,0.00,meteohub,2013-08-30 06:44:00,
2013-08-30 00:49:00,56.1,47.7,31.26,NE,45,5.0,8.0,73,0.00,,,0.00,meteohub,2013-08-30 06:49:00,
2013-08-30 00:54:00,56.1,47.7,31.26,NE,45,4.0,8.0,73,0.00,,,0.00,meteohub,2013-08-30 06:54:00,
2013-08-30 00:59:00,56.1,47.7,31.25,NE,45,3.0,8.0,73,0.00,,,0.00,meteohub,2013-08-30 06:59:00,
2013-08-30 01:04:00,55.8,47.7,31.25,East,90,7.0,7.0,74,0.00,,,0.00,meteohub,2013-08-30 07:04:00,
2013-08-30 01:09:00,55.4,47.7,31.25,NE,45,4.0,8.0,75,0.00,,,0.00,meteohub,2013-08-30 07:09:00,
2013-08-30 01:14:00,55.2,48.2,31.25,East,90,5.0,9.0,77,0.00,,,0.00,meteohub,2013-08-30 07:14:00,
2013-08-30 01:19:00,55.0,48.4,31.25,ENE,68,5.0,9.0,78,0.00,,,0.00,meteohub,2013-08-30 07:19:00,
2013-08-30 01:24:00,55.0,48.4,31.25,North,0,8.0,9.0,78,0.00,,,0.00,meteohub,2013-08-30 07:24:00,
2013-08-30 01:29:00,55.0,48.4,31.25,North,0,6.0,9.0,78,0.00,,,0.00,meteohub,2013-08-30 07:29:00,
2013-08-30 01:34:00,55.0,48.4,31.25,NE,45,5.0,9.0,78,0.00,,,0.00,meteohub,2013-08-30 07:34:00,
2013-08-30 01:39:00,55.0,48.4,31.25,NE,45,6.0,8.0,78,0.00,,,0.00,meteohub,2013-08-30 07:39:00,
2013-08-30 01:44:00,54.9,48.2,31.25,NE,45,5.0,7.0,78,0.00,,,0.00,meteohub,2013-08-30 07:44:00,
2013-08-30 01:49:00,54.5,47.8,31.24,North,0,5.0,10.0,78,0.00,,,0.00,meteohub,2013-08-30 07:49:00,
2013-08-30 01:54:00,54.7,47.7,31.23,NE,45,6.0,10.0,77,0.00,,,0.00,meteohub,2013-08-30 07:54:00,
2013-08-30 01:59:00,54.7,47.7,31.23,NE,45,5.0,10.0,77,0.00,,,0.00,meteohub,2013-08-30 07:59:00,
2013-08-30 02:05:00,54.7,47.7,31.24,NE,45,5.0,7.0,77,0.00,,,0.00,meteohub,2013-08-30 08:05:00,
2013-08-30 02:10:00,54.7,47.3,31.23,NE,45,3.0,7.0,76,0.00,,,0.00,meteohub,2013-08-30 08:10:00,
2013-08-30 02:15:00,54.7,46.9,31.23,North,0,4.0,6.0,75,0.00,,,0.00,meteohub,2013-08-30 08:15:00,
2013-08-30 02:20:00,54.9,46.8,31.23,North,0,5.0,5.0,74,0.00,,,0.00,meteohub,2013-08-30 08:20:00,
2013-08-30 02:25:00,54.9,46.4,31.23,East,90,3.0,5.0,73,0.00,,,0.00,meteohub,2013-08-30 08:25:00,
2013-08-30 02:30:00,54.9,46.4,31.23,ESE,113,2.0,5.0,73,0.00,,,0.00,meteohub,2013-08-30 08:30:00,
2013-08-30 02:35:00,54.3,45.9,31.23,NE,45,2.0,6.0,73,0.00,,,0.00,meteohub,2013-08-30 08:35:00,
2013-08-30 02:40:00,53.8,45.7,31.23,East,90,3.0,6.0,74,0.00,,,0.00,meteohub,2013-08-30 08:40:00,
2013-08-30 02:45:00,53.4,46.0,31.23,NE,45,4.0,6.0,76,0.00,,,0.00,meteohub,2013-08-30 08:45:00,
2013-08-30 02:50:00,53.1,45.7,31.23,East,90,4.0,4.0,76,0.00,,,0.00,meteohub,2013-08-30 08:50:00,
2013-08-30 02:55:00,52.7,45.7,31.23,North,0,4.0,4.0,77,0.00,,,0.00,meteohub,2013-08-30 08:55:00,
2013-08-30 03:00:00,52.3,45.7,31.23,East,90,3.0,4.0,78,0.00,,,0.00,meteohub,2013-08-30 09:00:00,
2013-08-30 03:05:00,52.3,46.0,31.22,NE,45,3.0,4.0,79,0.00,,,0.00,meteohub,2013-08-30 09:05:00,
2013-08-30 03:10:00,52.2,45.9,31.23,East,90,4.0,4.0,79,0.00,,,0.00,meteohub,2013-08-30 09:10:00,
2013-08-30 03:15:00,52.0,45.7,31.22,East,90,5.0,5.0,79,0.00,,,0.00,meteohub,2013-08-30 09:15:00,
2013-08-30 03:20:00,52.2,46.2,31.22,NE,45,5.0,7.0,80,0.00,,,0.00,meteohub,2013-08-30 09:20:00,
2013-08-30 03:25:00,52.2,46.2,31.22,SW,225,2.0,7.0,80,0.00,,,0.00,meteohub,2013-08-30 09:25:00,
2013-08-30 03:30:00,52.2,46.2,31.22,NE,45,2.0,6.0,80,0.00,,,0.00,meteohub,2013-08-30 09:30:00,
2013-08-30 03:35:00,52.0,46.0,31.23,NE,45,4.0,6.0,80,0.00,,,0.00,meteohub,2013-08-30 09:35:00,
2013-08-30 03:40:00,52.0,46.0,31.22,NE,45,5.0,6.0,80,0.00,,,0.00,meteohub,2013-08-30 09:40:00,
2013-08-30 03:45:00,52.2,46.2,31.23,East,90,7.0,7.0,80,0.00,,,0.00,meteohub,2013-08-30 09:45:00,
2013-08-30 03:50:00,52.3,46.4,31.22,East,90,4.0,8.0,80,0.00,,,0.00,meteohub,2013-08-30 09:50:00,
2013-08-30 03:55:00,52.5,46.6,31.22,North,0,3.0,8.0,80,0.00,,,0.00,meteohub,2013-08-30 09:55:00,
2013-08-30 04:00:00,52.7,46.4,31.22,East,90,4.0,5.0,79,0.00,,,0.00,meteohub,2013-08-30 10:00:00,
2013-08-30 04:05:00,52.7,46.4,31.22,East,90,4.0,4.0,79,0.00,,,0.00,meteohub,2013-08-30 10:05:00,
2013-08-30 04:10:00,52.7,46.4,31.22,NE,45,3.0,4.0,79,0.00,,,0.00,meteohub,2013-08-30 10:10:00,
2013-08-30 04:15:00,52.9,46.6,31.22,NW,315,5.0,5.0,79,0.00,,,0.00,meteohub,2013-08-30 10:15:00,
2013-08-30 04:20:00,53.1,46.8,31.22,North,0,3.0,6.0,79,0.00,,,0.00,meteohub,2013-08-30 10:20:00,
2013-08-30 04:25:00,53.1,46.8,31.22,NE,45,2.0,6.0,79,0.00,,,0.00,meteohub,2013-08-30 10:25:00,
2013-08-30 04:30:00,52.9,46.6,31.22,North,0,2.0,6.0,79,0.00,,,0.00,meteohub,2013-08-30 10:30:00,
2013-08-30 04:35:00,52.9,46.6,31.22,West,270,2.0,5.0,79,0.00,,,0.00,meteohub,2013-08-30 10:35:00,
2013-08-30 04:40:00,52.5,46.6,31.23,West,270,2.0,2.0,80,0.00,,,0.00,meteohub,2013-08-30 10:40:00,
2013-08-30 04:45:00,52.2,46.2,31.23,West,270,3.0,3.0,80,0.00,,,0.00,meteohub,2013-08-30 10:45:00,
2013-08-30 04:50:00,52.0,46.4,31.23,West,270,2.0,3.0,81,0.00,,,0.00,meteohub,2013-08-30 10:50:00,
2013-08-30 04:55:00,51.8,46.2,31.23,NW,315,2.0,3.0,81,0.00,,,0.00,meteohub,2013-08-30 10:55:00,
2013-08-30 05:00:00,51.8,46.2,31.23,North,0,2.0,3.0,81,0.00,,,0.00,meteohub,2013-08-30 11:00:00,
2013-08-30 05:05:00,51.6,46.6,31.23,NW,315,4.0,4.0,83,0.00,,,0.00,meteohub,2013-08-30 11:05:00,
2013-08-30 05:10:00,51.4,46.4,31.23,NW,315,3.0,4.0,83,0.00,,,0.00,meteohub,2013-08-30 11:10:00,
2013-08-30 05:15:00,51.4,46.8,31.23,NW,315,3.0,4.0,84,0.00,,,0.00,meteohub,2013-08-30 11:15:00,
2013-08-30 05:20:00,51.4,46.8,31.23,NNW,338,2.0,4.0,84,0.00,,,0.00,meteohub,2013-08-30 11:20:00,
2013-08-30 05:25:00,51.4,46.8,31.23,North,0,1.0,4.0,84,0.00,,,0.00,meteohub,2013-08-30 11:25:00,
2013-08-30 05:30:00,51.3,46.6,31.23,NW,315,3.0,4.0,84,0.00,,,0.00,meteohub,2013-08-30 11:30:00,
2013-08-30 05:35:00,50.9,46.2,31.23,West,270,2.0,4.0,84,0.00,,,0.00,meteohub,2013-08-30 11:35:00,
2013-08-30 05:40:00,50.5,46.2,31.23,North,0,2.0,3.0,85,0.00,,,0.00,meteohub,2013-08-30 11:40:00,
2013-08-30 05:45:00,50.2,45.9,31.23,NE,45,2.0,3.0,85,0.00,,,0.00,meteohub,2013-08-30 11:45:00,
2013-08-30 05:50:00,50.0,45.7,31.23,NE,45,2.0,2.0,85,0.00,,,0.00,meteohub,2013-08-30 11:50:00,
2013-08-30 05:55:00,50.0,45.7,31.23,NE,45,2.0,2.0,85,0.00,,,0.00,meteohub,2013-08-30 11:55:00,
2013-08-30 06:00:00,50.0,45.7,31.23,North,0,0.0,2.0,85,0.00,,,0.00,meteohub,2013-08-30 12:00:00,
2013-08-30 06:06:00,50.0,45.7,31.23,North,0,0.0,2.0,85,0.00,,,0.00,meteohub,2013-08-30 12:06:00,
2013-08-30 06:11:00,49.5,45.5,31.23,East,90,2.0,3.0,86,0.00,,,0.00,meteohub,2013-08-30 12:11:00,
2013-08-30 06:16:00,49.3,45.5,31.23,NW,315,2.0,3.0,87,0.00,,,0.00,meteohub,2013-08-30 12:16:00,
2013-08-30 06:21:00,48.7,44.8,31.24,North,0,0.0,4.0,86,0.00,,,0.00,meteohub,2013-08-30 12:21:00,
2013-08-30 06:26:00,48.4,44.4,31.23,NE,45,2.0,4.0,86,0.00,,,0.00,meteohub,2013-08-30 12:26:00,
2013-08-30 06:31:00,48.2,44.2,31.24,NW,315,2.0,4.0,86,0.00,,,0.00,meteohub,2013-08-30 12:31:00,
2013-08-30 06:36:00,48.0,44.4,31.24,North,0,2.0,3.0,87,0.00,,,0.00,meteohub,2013-08-30 12:36:00,
2013-08-30 06:41:00,48.0,44.4,31.24,NE,45,2.0,3.0,87,0.00,,,0.00,meteohub,2013-08-30 12:41:00,
2013-08-30 06:46:00,47.8,44.2,31.24,East,90,0.0,3.0,87,0.00,,,0.00,meteohub,2013-08-30 12:46:00,
2013-08-30 06:51:00,47.8,44.2,31.25,SW,225,2.0,3.0,87,0.00,,,0.00,meteohub,2013-08-30 12:51:00,
2013-08-30 06:56:00,48.0,44.6,31.25,North,0,2.0,3.0,88,0.00,,,0.00,meteohub,2013-08-30 12:56:00,
2013-08-30 07:01:00,47.8,44.4,31.25,NW,315,1.0,2.0,88,0.00,,,0.00,meteohub,2013-08-30 13:01:00,
2013-08-30 07:06:00,47.8,44.4,31.25,NW,315,0.0,2.0,88,0.00,,,0.00,meteohub,2013-08-30 13:06:00,
2013-08-30 07:11:00,47.8,44.8,31.25,NE,45,0.0,2.0,89,0.00,,,0.00,meteohub,2013-08-30 13:11:00,
2013-08-30 07:16:00,47.8,44.8,31.25,NW,315,0.0,2.0,89,0.00,,,0.00,meteohub,2013-08-30 13:16:00,
2013-08-30 07:21:00,47.8,44.8,31.25,NW,315,0.0,2.0,89,0.00,,,0.00,meteohub,2013-08-30 13:21:00,
2013-08-30 07:26:00,47.8,44.8,31.25,NE,45,2.0,2.0,89,0.00,,,0.00,meteohub,2013-08-30 13:26:00,
2013-08-30 07:31:00,48.2,45.1,31.25,NE,45,3.0,3.0,89,0.00,,,0.00,meteohub,2013-08-30 13:31:00,
2013-08-30 07:36:00,48.4,45.3,31.25,East,90,1.0,4.0,89,0.00,,,0.00,meteohub,2013-08-30 13:36:00,
2013-08-30 07:41:00,48.9,45.9,31.25,ENE,68,3.0,4.0,89,0.00,,,0.00,meteohub,2013-08-30 13:41:00,
2013-08-30 07:46:00,49.5,46.4,31.25,NE,45,2.0,4.0,89,0.00,,,0.00,meteohub,2013-08-30 13:46:00,
2013-08-30 07:51:00,49.8,46.8,31.25,East,90,1.0,4.0,89,0.00,,,0.00,meteohub,2013-08-30 13:51:00,
2013-08-30 07:56:00,49.8,46.4,31.25,East,90,2.0,4.0,88,0.00,,,0.00,meteohub,2013-08-30 13:56:00,
2013-08-30 08:01:00,49.6,45.9,31.25,East,90,3.0,3.0,87,0.00,,,0.00,meteohub,2013-08-30 14:01:00,
2013-08-30 08:06:00,49.6,45.9,31.25,East,90,3.0,3.0,87,0.00,,,0.00,meteohub,2013-08-30 14:06:00,
2013-08-30 08:11:00,50.4,46.4,31.25,NE,45,2.0,4.0,86,0.00,,,0.00,meteohub,2013-08-30 14:11:00,
2013-08-30 08:16:00,50.5,46.6,31.25,NE,45,2.0,4.0,86,0.00,,,0.00,meteohub,2013-08-30 14:16:00,
2013-08-30 08:22:00,51.1,47.1,31.25,East,90,2.0,4.0,86,0.00,,,0.00,meteohub,2013-08-30 14:22:00,
2013-08-30 08:27:00,51.8,47.5,31.25,East,90,2.0,3.0,85,0.00,,,0.00,meteohub,2013-08-30 14:27:00,
2013-08-30 08:32:00,52.2,47.8,31.25,SW,225,1.0,3.0,85,0.00,,,0.00,meteohub,2013-08-30 14:32:00,
2013-08-30 08:37:00,52.9,48.6,31.25,East,90,4.0,4.0,85,0.00,,,0.00,meteohub,2013-08-30 14:37:00,
2013-08-30 08:42:00,53.4,48.7,31.25,East,90,2.0,4.0,84,0.00,,,0.00,meteohub,2013-08-30 14:42:00,
2013-08-30 08:47:00,54.1,48.7,31.25,East,90,4.0,5.0,82,0.00,,,0.00,meteohub,2013-08-30 14:47:00,
2013-08-30 08:52:00,54.7,49.3,31.25,East,90,5.0,8.0,82,0.00,,,0.00,meteohub,2013-08-30 14:52:00,
2013-08-30 08:57:00,55.2,49.5,31.25,East,90,8.0,8.0,81,0.00,,,0.00,meteohub,2013-08-30 14:57:00,
2013-08-30 09:02:00,55.8,49.6,31.25,SE,135,7.0,10.0,80,0.00,,,0.00,meteohub,2013-08-30 15:02:00,
2013-08-30 09:07:00,56.5,50.0,31.25,East,90,4.0,10.0,79,0.00,,,0.00,meteohub,2013-08-30 15:07:00,
2013-08-30 09:12:00,57.2,50.0,31.25,ENE,68,4.0,10.0,77,0.00,,,0.00,meteohub,2013-08-30 15:12:00,
2013-08-30 09:17:00,57.9,50.4,31.25,East,90,5.0,7.0,76,0.00,,,0.00,meteohub,2013-08-30 15:17:00,
2013-08-30 09:22:00,58.6,50.7,31.24,NE,45,5.0,5.0,75,0.00,,,0.00,meteohub,2013-08-30 15:22:00,
2013-08-30 09:27:00,59.4,51.1,31.24,East,90,5.0,6.0,74,0.00,,,0.00,meteohub,2013-08-30 15:27:00,
2013-08-30 09:32:00,59.5,50.9,31.24,East,90,5.0,6.0,73,0.00,,,0.00,meteohub,2013-08-30 15:32:00,
2013-08-30 09:37:00,59.7,50.7,31.24,East,90,6.0,6.0,72,0.00,,,0.00,meteohub,2013-08-30 15:37:00,
2013-08-30 09:42:00,59.7,50.4,31.24,East,90,4.0,6.0,71,0.00,,,0.00,meteohub,2013-08-30 15:42:00,
2013-08-30 09:47:00,60.3,50.9,31.24,East,90,3.0,6.0,71,0.00,,,0.00,meteohub,2013-08-30 15:47:00,
2013-08-30 09:52:00,60.8,50.9,31.24,ESE,113,4.0,6.0,70,0.00,,,0.00,meteohub,2013-08-30 15:52:00,
2013-08-30 09:57:00,61.3,51.1,31.24,East,90,5.0,5.0,69,0.00,,,0.00,meteohub,2013-08-30 15:57:00,
2013-08-30 10:02:00,61.7,51.4,31.24,East,90,5.0,6.0,69,0.00,,,0.00,meteohub,2013-08-30 16:02:00,
2013-08-30 10:07:00,61.7,51.4,31.23,East,90,5.0,6.0,69,0.00,,,0.00,meteohub,2013-08-30 16:07:00,
2013-08-30 10:12:00,62.8,50.4,31.23,East,90,3.0,6.0,64,0.00,,,0.00,meteohub,2013-08-30 16:12:00,
2013-08-30 10:17:00,63.7,51.3,31.23,East,90,2.0,5.0,64,0.00,,,0.00,meteohub,2013-08-30 16:17:00,
2013-08-30 10:22:00,64.8,52.3,31.23,SSE,158,2.0,5.0,64,0.00,,,0.00,meteohub,2013-08-30 16:22:00,
2013-08-30 10:27:00,65.7,52.7,31.23,SE,135,2.0,4.0,63,0.00,,,0.00,meteohub,2013-08-30 16:27:00,
2013-08-30 10:32:00,66.7,52.9,31.23,SW,225,2.0,2.0,61,0.00,,,0.00,meteohub,2013-08-30 16:32:00,
2013-08-30 10:37:00,68.2,53.2,31.23,SW,225,1.0,2.0,59,0.00,,,0.00,meteohub,2013-08-30 16:37:00,
2013-08-30 10:42:00,69.1,51.8,31.23,NE,45,1.0,3.0,54,0.00,,,0.00,meteohub,2013-08-30 16:42:00,
2013-08-30 10:47:00,69.6,52.2,31.23,SE,135,2.0,3.0,54,0.00,,,0.00,meteohub,2013-08-30 16:47:00,
2013-08-30 10:52:00,69.6,52.7,31.22,South,180,1.0,3.0,55,0.00,,,0.00,meteohub,2013-08-30 16:52:00,
2013-08-30 10:57:00,69.8,52.0,31.23,SE,135,2.0,2.0,53,0.00,,,0.00,meteohub,2013-08-30 16:57:00,
2013-08-30 11:02:00,69.8,52.0,31.22,SE,135,2.0,2.0,53,0.00,,,0.00,meteohub,2013-08-30 17:02:00,
2013-08-30 11:07:00,70.0,51.1,31.22,South,180,0.0,2.0,51,0.00,,,0.00,meteohub,2013-08-30 17:07:00,
2013-08-30 11:12:00,69.8,49.8,31.22,West,270,2.0,3.0,49,0.00,,,0.00,meteohub,2013-08-30 17:12:00,
2013-08-30 11:17:00,69.8,49.3,31.22,West,270,2.0,3.0,48,0.00,,,0.00,meteohub,2013-08-30 17:17:00,
2013-08-30 11:22:00,69.8,50.4,31.22,West,270,0.0,3.0,50,0.00,,,0.00,meteohub,2013-08-30 17:22:00,
2013-08-30 11:27:00,69.8,50.4,31.22,South,180,0.0,3.0,50,0.00,,,0.00,meteohub,2013-08-30 17:27:00,
2013-08-30 11:32:00,70.2,50.7,31.22,South,180,6.0,6.0,50,0.00,,,0.00,meteohub,2013-08-30 17:32:00,
2013-08-30 11:37:00,70.3,49.6,31.22,NW,315,4.0,6.0,48,0.00,,,0.00,meteohub,2013-08-30 17:37:00,
2013-08-30 11:42:00,70.3,50.4,31.22,NW,315,8.0,8.0,49,0.00,,,0.00,meteohub,2013-08-30 17:42:00,
2013-08-30 11:47:00,70.3,51.4,31.22,South,180,8.0,8.0,51,0.00,,,0.00,meteohub,2013-08-30 17:47:00,
2013-08-30 11:52:00,70.2,51.8,31.22,South,180,10.0,10.0,52,0.00,,,0.00,meteohub,2013-08-30 17:52:00,
2013-08-30 11:57:00,70.0,51.6,31.22,West,270,8.0,10.0,52,0.00,,,0.00,meteohub,2013-08-30 17:57:00,
2013-08-30 12:02:00,70.0,51.6,31.22,SW,225,8.0,10.0,52,0.00,,,0.00,meteohub,2013-08-30 18:02:00,
2013-08-30 12:07:00,70.0,51.6,31.22,SW,225,8.0,10.0,52,0.00,,,0.00,meteohub,2013-08-30 18:07:00,
2013-08-30 12:12:00,68.9,50.0,31.22,West,270,5.0,9.0,51,0.00,,,0.00,meteohub,2013-08-30 18:12:00,
2013-08-30 12:17:00,68.5,49.1,31.22,West,270,4.0,10.0,50,0.00,,,0.00,meteohub,2013-08-30 18:17:00,
2013-08-30 12:22:00,68.4,49.5,31.22,NW,315,6.0,10.0,51,0.00,,,0.00,meteohub,2013-08-30 18:22:00,
2013-08-30 12:27:00,68.4,47.8,31.22,SW,225,10.0,10.0,48,0.00,,,0.00,meteohub,2013-08-30 18:27:00,
2013-08-30 12:32:00,68.2,47.1,31.22,NW,315,8.0,13.0,47,0.00,,,0.00,meteohub,2013-08-30 18:32:00,
2013-08-30 12:37:00,68.0,48.2,31.22,SW,225,6.0,13.0,49,0.00,,,0.00,meteohub,2013-08-30 18:37:00,
2013-08-30 12:42:00,67.6,48.9,31.22,NW,315,7.0,13.0,51,0.00,,,0.00,meteohub,2013-08-30 18:42:00,
2013-08-30 12:47:00,66.9,48.2,31.22,South,180,7.0,8.0,51,0.00,,,0.00,meteohub,2013-08-30 18:47:00,
2013-08-30 12:52:00,66.4,47.7,31.22,NW,315,7.0,8.0,51,0.00,,,0.00,meteohub,2013-08-30 18:52:00,
2013-08-30 12:57:00,65.7,49.1,31.22,West,270,4.0,8.0,55,0.00,,,0.00,meteohub,2013-08-30 18:57:00,
2013-08-30 13:02:00,64.6,50.4,31.21,WNW,293,4.0,8.0,60,0.00,,,0.00,meteohub,2013-08-30 19:02:00,
2013-08-30 13:07:00,63.3,50.5,31.22,South,180,4.0,8.0,63,0.01,,,0.01,meteohub,2013-08-30 19:07:00,
2013-08-30 13:12:00,62.6,52.0,31.21,South,180,4.0,8.0,68,0.04,,,0.04,meteohub,2013-08-30 19:12:00,
2013-08-30 13:17:00,63.0,53.8,31.21,South,180,4.0,7.0,72,0.04,,,0.04,meteohub,2013-08-30 19:17:00,
2013-08-30 13:22:00,64.4,54.9,31.21,East,90,4.0,7.0,71,0.04,,,0.04,meteohub,2013-08-30 19:22:00,
2013-08-30 13:27:00,65.1,52.7,31.21,NW,315,4.0,7.0,64,0.04,,,0.04,meteohub,2013-08-30 19:27:00,
2013-08-30 13:32:00,65.5,51.6,31.21,SW,225,3.0,7.0,61,0.04,,,0.04,meteohub,2013-08-30 19:32:00,
2013-08-30 13:37:00,66.2,51.4,31.21,West,270,8.0,8.0,59,0.04,,,0.04,meteohub,2013-08-30 19:37:00,
2013-08-30 13:42:00,66.9,51.3,31.20,NW,315,4.0,8.0,57,0.04,,,0.04,meteohub,2013-08-30 19:42:00,
2013-08-30 13:47:00,67.8,49.1,31.20,West,270,6.0,8.0,51,0.04,,,0.04,meteohub,2013-08-30 19:47:00,
2013-08-30 13:52:00,68.0,48.2,31.20,South,180,6.0,9.0,49,0.04,,,0.04,meteohub,2013-08-30 19:52:00,
2013-08-30 13:57:00,67.5,48.7,31.21,South,180,8.0,10.0,51,0.04,,,0.04,meteohub,2013-08-30 19:57:00,
2013-08-30 14:02:00,67.5,48.7,31.21,SE,135,8.0,11.0,51,0.02,,,0.04,meteohub,2013-08-30 20:02:00,
2013-08-30 14:07:00,67.5,48.7,31.21,SE,135,8.0,11.0,51,0.01,,,0.04,meteohub,2013-08-30 20:07:00,
2013-08-30 14:12:00,66.0,49.5,31.21,West,270,8.0,11.0,55,0.00,,,0.04,meteohub,2013-08-30 20:12:00,
2013-08-30 14:17:00,65.5,49.8,31.21,SW,225,4.0,8.0,57,0.00,,,0.04,meteohub,2013-08-30 20:17:00,
2013-08-30 14:22:00,65.1,50.0,31.21,South,180,2.0,8.0,58,0.00,,,0.04,meteohub,2013-08-30 20:22:00,
2013-08-30 14:27:00,64.8,50.5,31.21,North,0,2.0,8.0,60,0.00,,,0.04,meteohub,2013-08-30 20:27:00,
2013-08-30 14:32:00,64.6,50.9,31.21,East,90,4.0,8.0,61,0.00,,,0.04,meteohub,2013-08-30 20:32:00,
2013-08-30 14:37:00,64.8,51.1,31.21,East,90,6.0,8.0,61,0.00,,,0.04,meteohub,2013-08-30 20:37:00,
2013-08-30 14:42:00,64.9,52.5,31.21,NE,45,6.0,8.0,64,0.00,,,0.04,meteohub,2013-08-30 20:42:00,
2013-08-30 14:47:00,64.4,52.3,31.21,NE,45,5.0,8.0,65,0.01,,,0.05,meteohub,2013-08-30 20:47:00,
2013-08-30 14:52:00,65.3,54.1,31.21,SE,135,4.0,8.0,67,0.01,,,0.05,meteohub,2013-08-30 20:52:00,
2013-08-30 14:57:00,67.3,55.6,31.21,East,90,5.0,8.0,66,0.01,,,0.05,meteohub,2013-08-30 20:57:00,
2013-08-30 15:02:00,68.7,54.3,31.21,East,90,8.0,9.0,60,0.01,,,0.05,meteohub,2013-08-30 21:02:00,
2013-08-30 15:07:00,69.6,53.2,31.20,East,90,6.0,9.0,56,0.01,,,0.05,meteohub,2013-08-30 21:07:00,
2013-08-30 15:12:00,70.3,53.4,31.20,SE,135,7.0,11.0,55,0.01,,,0.05,meteohub,2013-08-30 21:12:00,
2013-08-30 15:17:00,70.5,53.1,31.20,NE,45,9.0,12.0,54,0.01,,,0.05,meteohub,2013-08-30 21:17:00,
2013-08-30 15:22:00,70.7,53.8,31.20,East,90,8.0,13.0,55,0.01,,,0.05,meteohub,2013-08-30 21:22:00,
2013-08-30 15:27:00,69.6,52.2,31.20,ENE,68,7.0,13.0,54,0.01,,,0.05,meteohub,2013-08-30 21:27:00,
2013-08-30 15:32:00,68.4,51.1,31.20,East,90,8.0,13.0,54,0.01,,,0.05,meteohub,2013-08-30 21:32:00,
2013-08-30 15:37:00,66.9,50.2,31.20,NE,45,7.0,8.0,55,0.01,,,0.05,meteohub,2013-08-30 21:37:00,
2013-08-30 15:42:00,66.4,50.2,31.19,East,90,8.0,9.0,56,0.01,,,0.05,meteohub,2013-08-30 21:42:00,
2013-08-30 15:47:00,65.8,50.7,31.20,NE,45,9.0,9.0,58,0.00,,,0.05,meteohub,2013-08-30 21:47:00,
2013-08-30 15:52:00,65.5,50.4,31.20,East,90,7.0,11.0,58,0.00,,,0.05,meteohub,2013-08-30 21:52:00,
2013-08-30 15:57:00,65.5,50.7,31.20,East,90,5.0,11.0,59,0.00,,,0.05,meteohub,2013-08-30 21:57:00,
2013-08-30 16:02:00,65.7,50.9,31.19,East,90,6.0,11.0,59,0.00,,,0.05,meteohub,2013-08-30 22:02:00,
2013-08-30 16:07:00,65.7,50.9,31.19,East,90,6.0,8.0,59,0.00,,,0.05,meteohub,2013-08-30 22:07:00,
2013-08-30 16:12:00,65.3,51.1,31.20,NE,45,6.0,8.0,60,0.00,,,0.05,meteohub,2013-08-30 22:12:00,
2013-08-30 16:17:00,64.8,51.1,31.20,NE,45,11.0,11.0,61,0.00,,,0.05,meteohub,2013-08-30 22:17:00,
2013-08-30 16:22:00,64.0,49.5,31.20,ENE,68,11.0,11.0,59,0.00,,,0.05,meteohub,2013-08-30 22:22:00,
2013-08-30 16:27:00,63.7,49.1,31.20,NE,45,7.0,11.0,59,0.00,,,0.05,meteohub,2013-08-30 22:27:00,
2013-08-30 16:32:00,63.3,49.3,31.20,East,90,11.0,11.0,60,0.00,,,0.05,meteohub,2013-08-30 22:32:00,
2013-08-30 16:37:00,63.1,49.5,31.20,East,90,8.0,11.0,61,0.00,,,0.05,meteohub,2013-08-30 22:37:00,
2013-08-30 16:42:00,63.0,49.3,31.20,NE,45,7.0,11.0,61,0.00,,,0.05,meteohub,2013-08-30 22:42:00,
2013-08-30 16:47:00,62.8,49.1,31.19,NE,45,7.0,11.0,61,0.00,,,0.05,meteohub,2013-08-30 22:47:00,
2013-08-30 16:52:00,62.6,49.5,31.19,East,90,4.0,8.0,62,0.00,,,0.05,meteohub,2013-08-30 22:52:00,
2013-08-30 16:57:00,62.2,50.0,31.20,East,90,4.0,7.0,64,0.00,,,0.05,meteohub,2013-08-30 22:57:00,
2013-08-30 17:02:00,62.2,50.7,31.20,East,90,1.0,7.0,66,0.00,,,0.05,meteohub,2013-08-30 23:02:00,
2013-08-30 17:07:00,62.4,51.8,31.20,SE,135,2.0,5.0,68,0.00,,,0.05,meteohub,2013-08-30 23:07:00,
2013-08-30 17:12:00,62.8,52.0,31.20,East,90,5.0,5.0,68,0.00,,,0.05,meteohub,2013-08-30 23:12:00,
2013-08-30 17:17:00,63.1,51.6,31.19,NE,45,5.0,6.0,66,0.00,,,0.05,meteohub,2013-08-30 23:17:00,
2013-08-30 17:22:00,63.3,51.4,31.19,SE,135,5.0,6.0,65,0.00,,,0.05,meteohub,2013-08-30 23:22:00,
2013-08-30 17:27:00,63.5,51.4,31.19,East,90,2.0,6.0,65,0.00,,,0.05,meteohub,2013-08-30 23:27:00,
2013-08-30 17:32:00,63.3,51.4,31.19,East,90,4.0,5.0,65,0.00,,,0.05,meteohub,2013-08-30 23:32:00,
2013-08-30 17:37:00,63.1,51.6,31.19,NE,45,3.0,5.0,66,0.00,,,0.05,meteohub,2013-08-30 23:37:00,
2013-08-30 17:42:00,63.0,52.2,31.19,East,90,3.0,4.0,68,0.00,,,0.05,meteohub,2013-08-30 23:42:00,
2013-08-30 17:47:00,63.0,52.2,31.19,East,90,4.0,4.0,68,0.00,,,0.05,meteohub,2013-08-30 23:47:00,
2013-08-30 17:52:00,63.0,52.7,31.19,NE,45,3.0,4.0,69,0.00,,,0.05,meteohub,2013-08-30 23:52:00,
2013-08-30 17:57:00,63.0,52.7,31.19,North,0,3.0,4.0,69,0.00,,,0.05,meteohub,2013-08-30 23:57:00,
2013-08-30 18:02:00,63.0,52.7,31.19,NE,45,4.0,4.0,69,0.00,,,0.05,meteohub,2013-08-31 00:02:00,
2013-08-30 18:07:00,63.0,52.7,31.19,NE,45,4.0,4.0,69,0.00,,,0.05,meteohub,2013-08-31 00:07:00,
2013-08-30 18:12:00,62.4,52.2,31.19,North,0,2.0,4.0,69,0.00,,,0.05,meteohub,2013-08-31 00:12:00,
2013-08-30 18:17:00,62.1,51.8,31.19,North,0,0.0,4.0,69,0.00,,,0.05,meteohub,2013-08-31 00:17:00,
2013-08-30 18:22:00,61.7,51.4,31.19,North,0,0.0,4.0,69,0.00,,,0.05,meteohub,2013-08-31 00:22:00,
2013-08-30 18:27:00,61.5,50.9,31.20,NW,315,2.0,2.0,68,0.00,,,0.05,meteohub,2013-08-31 00:27:00,
2013-08-30 18:33:00,61.2,51.3,31.20,NW,315,4.0,4.0,70,0.00,,,0.06,meteohub,2013-08-31 00:33:00,
2013-08-30 18:38:00,60.3,52.0,31.20,NW,315,2.0,2.0,74,0.01,,,0.06,meteohub,2013-08-31 00:38:00,
2013-08-30 18:43:00,59.5,51.6,31.20,NW,315,2.0,4.0,75,0.02,,,0.07,meteohub,2013-08-31 00:43:00,
2013-08-30 18:48:00,58.8,51.6,31.20,North,0,2.0,4.0,77,0.02,,,0.07,meteohub,2013-08-31 00:48:00,
2013-08-30 18:53:00,58.6,51.1,31.20,NE,45,4.0,4.0,76,0.02,,,0.07,meteohub,2013-08-31 00:53:00,
2013-08-30 18:58:00,58.3,51.4,31.20,NNE,23,4.0,4.0,78,0.04,,,0.08,meteohub,2013-08-31 00:58:00,
2013-08-30 19:03:00,58.1,51.3,31.20,North,0,4.0,5.0,78,0.04,,,0.08,meteohub,2013-08-31 01:03:00,
2013-08-30 19:08:00,57.7,50.9,31.19,NE,45,5.0,5.0,78,0.04,,,0.08,meteohub,2013-08-31 01:08:00,
2013-08-30 19:13:00,57.6,50.7,31.18,NE,45,4.0,5.0,78,0.04,,,0.08,meteohub,2013-08-31 01:13:00,
2013-08-30 19:18:00,57.6,51.1,31.19,East,90,3.0,5.0,79,0.04,,,0.08,meteohub,2013-08-31 01:18:00,
2013-08-30 19:23:00,57.6,51.4,31.20,East,90,3.0,6.0,80,0.04,,,0.08,meteohub,2013-08-31 01:23:00,
2013-08-30 19:28:00,57.4,51.6,31.21,East,90,7.0,8.0,81,0.04,,,0.08,meteohub,2013-08-31 01:28:00,
2013-08-30 19:33:00,57.2,51.8,31.21,NE,45,9.0,9.0,82,0.01,,,0.08,meteohub,2013-08-31 01:33:00,
2013-08-30 19:38:00,57.0,51.6,31.21,NE,45,10.0,11.0,82,0.01,,,0.08,meteohub,2013-08-31 01:38:00,
2013-08-30 19:43:00,57.0,51.6,31.22,North,0,10.0,12.0,82,0.01,,,0.08,meteohub,2013-08-31 01:43:00,
2013-08-30 19:48:00,57.2,51.1,31.22,SE,135,9.0,12.0,80,0.01,,,0.08,meteohub,2013-08-31 01:48:00,
2013-08-30 19:53:00,57.4,50.5,31.22,East,90,10.0,12.0,78,0.01,,,0.08,meteohub,2013-08-31 01:53:00,
2013-08-30 19:58:00,57.6,49.6,31.22,NE,45,11.0,12.0,75,0.00,,,0.08,meteohub,2013-08-31 01:58:00,
2013-08-30 20:03:00,57.6,49.6,31.23,East,90,12.0,13.0,75,0.00,,,0.08,meteohub,2013-08-31 02:03:00,
2013-08-30 20:08:00,57.7,49.5,31.23,NE,45,6.0,13.0,74,0.00,,,0.08,meteohub,2013-08-31 02:08:00,
2013-08-30 20:13:00,57.6,49.6,31.23,NE,45,6.0,13.0,75,0.00,,,0.08,meteohub,2013-08-31 02:13:00,
2013-08-30 20:18:00,57.4,49.5,31.23,NE,45,4.0,12.0,75,0.00,,,0.08,meteohub,2013-08-31 02:18:00,
2013-08-30 20:23:00,57.4,49.5,31.23,NE,45,5.0,12.0,75,0.00,,,0.08,meteohub,2013-08-31 02:23:00,
2013-08-30 20:28:00,57.2,49.6,31.23,East,90,4.0,9.0,76,0.00,,,0.08,meteohub,2013-08-31 02:28:00,
2013-08-30 20:33:00,56.8,49.6,31.23,NE,45,2.0,9.0,77,0.00,,,0.08,meteohub,2013-08-31 02:33:00,
2013-08-30 20:38:00,56.7,49.5,31.23,NE,45,4.0,9.0,77,0.00,,,0.08,meteohub,2013-08-31 02:38:00,
2013-08-30 20:43:00,56.5,48.9,31.23,NE,45,4.0,4.0,76,0.00,,,0.08,meteohub,2013-08-31 02:43:00,
2013-08-30 20:48:00,56.5,48.9,31.23,NE,45,3.0,7.0,76,0.00,,,0.08,meteohub,2013-08-31 02:48:00,
2013-08-30 20:53:00,56.1,48.7,31.23,ENE,68,4.0,7.0,76,0.00,,,0.08,meteohub,2013-08-31 02:53:00,
2013-08-30 20:58:00,56.3,48.9,31.23,NE,45,7.0,7.0,76,0.00,,,0.08,meteohub,2013-08-31 02:58:00,
2013-08-30 21:03:00,56.3,48.9,31.23,NE,45,6.0,8.0,76,0.00,,,0.08,meteohub,2013-08-31 03:03:00,
2013-08-30 21:08:00,56.3,48.6,31.23,NNW,338,6.0,8.0,75,0.00,,,0.08,meteohub,2013-08-31 03:08:00,
2013-08-30 21:13:00,56.3,48.6,31.23,NE,45,6.0,7.0,75,0.00,,,0.08,meteohub,2013-08-31 03:13:00,
2013-08-30 21:19:00,56.3,48.6,31.23,NE,45,4.0,8.0,75,0.00,,,0.08,meteohub,2013-08-31 03:19:00,
2013-08-30 21:23:00,56.1,48.0,31.23,NE,45,7.0,8.0,74,0.00,,,0.08,meteohub,2013-08-31 03:23:00,
2013-08-30 21:28:00,56.1,48.0,31.23,NE,45,4.0,9.0,74,0.00,,,0.08,meteohub,2013-08-31 03:28:00,
2013-08-30 21:34:00,55.9,47.8,31.23,East,90,5.0,9.0,74,0.00,,,0.08,meteohub,2013-08-31 03:34:00,
2013-08-30 21:39:00,55.8,47.7,31.23,NE,45,5.0,9.0,74,0.00,,,0.08,meteohub,2013-08-31 03:39:00,
2013-08-30 21:44:00,55.6,47.5,31.23,East,90,7.0,7.0,74,0.00,,,0.08,meteohub,2013-08-31 03:44:00,
2013-08-30 21:49:00,55.4,47.3,31.23,East,90,3.0,7.0,74,0.00,,,0.08,meteohub,2013-08-31 03:49:00,
2013-08-30 21:54:00,54.9,46.8,31.23,East,90,3.0,7.0,74,0.00,,,0.08,meteohub,2013-08-31 03:54:00,
2013-08-30 21:59:00,54.5,46.8,31.23,NE,45,3.0,7.0,75,0.00,,,0.08,meteohub,2013-08-31 03:59:00,
2013-08-30 22:01:00,54.3,46.6,31.23,NE,45,4.0,5.0,75,0.00,,,0.08,meteohub,2013-08-31 04:01:00,
2013-08-30 22:02:00,54.3,46.6,31.23,NE,45,4.0,5.0,75,0.00,,,0.08,meteohub,2013-08-31 04:02:00,
2013-08-30 22:03:00,54.3,46.6,31.23,NE,45,4.0,5.0,75,0.00,,,0.08,meteohub,2013-08-31 04:03:00,
2013-08-30 22:08:00,54.0,46.6,31.22,ENE,68,4.0,5.0,76,0.00,,,0.08,meteohub,2013-08-31 04:08:00,
2013-08-30 22:13:00,54.3,46.9,31.22,NE,45,4.0,6.0,76,0.00,,,0.08,meteohub,2013-08-31 04:13:00,
2013-08-30 22:18:00,54.5,47.1,31.22,East,90,4.0,6.0,76,0.00,,,0.08,meteohub,2013-08-31 04:18:00,
2013-08-30 22:23:00,54.3,46.9,31.21,East,90,4.0,6.0,76,0.00,,,0.08,meteohub,2013-08-31 04:23:00,
2013-08-30 22:28:00,53.8,46.8,31.21,NE,45,4.0,6.0,77,0.00,,,0.08,meteohub,2013-08-31 04:28:00,
2013-08-30 22:33:00,53.6,46.6,31.21,ENE,68,4.0,6.0,77,0.00,,,0.08,meteohub,2013-08-31 04:33:00,
2013-08-30 22:38:00,53.6,46.6,31.21,SSW,203,7.0,7.0,77,0.00,,,0.08,meteohub,2013-08-31 04:38:00,
2013-08-30 22:43:00,53.6,46.9,31.21,East,90,3.0,8.0,78,0.00,,,0.08,meteohub,2013-08-31 04:43:00,
2013-08-30 22:48:00,53.4,47.1,31.21,East,90,4.0,8.0,79,0.00,,,0.08,meteohub,2013-08-31 04:48:00,
2013-08-30 22:53:00,53.1,47.1,31.21,East,90,4.0,8.0,80,0.00,,,0.08,meteohub,2013-08-31 04:53:00,
2013-08-30 22:58:00,52.9,46.9,31.21,NE,45,5.0,5.0,80,0.00,,,0.08,meteohub,2013-08-31 04:58:00,
2013-08-30 23:03:00,53.1,47.1,31.21,NE,45,4.0,5.0,80,0.00,,,0.08,meteohub,2013-08-31 05:03:00,
2013-08-30 23:08:00,53.2,47.3,31.21,East,90,4.0,5.0,80,0.00,,,0.08,meteohub,2013-08-31 05:08:00,
2013-08-30 23:13:00,53.4,47.5,31.21,NNE,23,4.0,5.0,80,0.00,,,0.08,meteohub,2013-08-31 05:13:00,
2013-08-30 23:18:00,53.4,47.5,31.21,NE,45,4.0,5.0,80,0.00,,,0.08,meteohub,2013-08-31 05:18:00,
2013-08-30 23:23:00,53.4,47.5,31.21,NE,45,4.0,5.0,80,0.00,,,0.08,meteohub,2013-08-31 05:23:00,
2013-08-30 23:28:00,53.6,47.3,31.20,NW,315,3.0,4.0,79,0.00,,,0.08,meteohub,2013-08-31 05:28:00,
2013-08-30 23:33:00,53.6,47.3,31.21,East,90,3.0,4.0,79,0.00,,,0.08,meteohub,2013-08-31 05:33:00,
2013-08-30 23:38:00,53.6,47.3,31.20,NE,45,3.0,4.0,79,0.00,,,0.08,meteohub,2013-08-31 05:38:00,
2013-08-30 23:43:00,53.4,47.5,31.20,NE,45,2.0,4.0,80,0.00,,,0.08,meteohub,2013-08-31 05:43:00,
2013-08-30 23:48:00,53.4,47.5,31.20,NE,45,2.0,4.0,80,0.00,,,0.08,meteohub,2013-08-31 05:48:00,
2013-08-30 23:53:00,53.4,47.5,31.20,NE,45,4.0,4.0,80,0.00,,,0.08,meteohub,2013-08-31 05:53:00,
2013-08-30 23:58:00,53.6,47.3,31.20,NW,315,2.0,4.0,79,0.00,,,0.08,meteohub,2013-08-31 05:58:00,